Tracking 29747 objects as of 10-Oct-2024
HD Live streaming from Space Station
objects crossing your sky now

DELTA 1 DEB

Track DELTA 1 DEB now!
10-day predictions


NORAD ID: 27577
Int'l Code: 1975-052LE
Perigee: 1,035.9 km
Apogee: 1,148.5 km
Inclination: 99.1 °
Period: 106.9 minutes
Semi major axis: 7463 km
RCS: 0.0165 m2 (small)
Launch date: June 12, 1975
Source: United States (US)
Launch site: AIR FORCE WESTERN TEST RANGE (AFWTR)

Note: This is SATELLITE DEBRIS
Your satellite tracking list
Your tracking list is empty




NASA's NSSDC Master Catalog

Two Line Element Set (TLE):
1 27577U 75052LE  24283.26794948  .00002619  00000-0  43357-2 0  9997
2 27577  99.1213 193.4689 0075436 138.8531  13.4144 13.46527095454629
Source of the keplerian elements: AFSPC